Weather History for Corpus Christi NAS, TX

Change the Weather History Date:

Friday, September 6, 2013

  Actual Average Record
Temperature  
Mean Temperature 84 °F -  
Max Temperature 90 °F 88 °F 91 °F (1998)
Min Temperature 79 °F 74 °F 73 °F (1996)
Cooling Degree Days 19    
Growing Degree Days 34 (Base 50)    
Moisture  
Dew Point 77 °F    
Average Humidity 81    
Maximum Humidity 94    
Minimum Humidity 66    
Precipitation  
Precipitation 0.02 in - - ()
Sea Level Pressure  
Sea Level Pressure 30.00 in    
Wind  
Wind Speed 5 mph (East)    
Max Wind Speed 15 mph    
Max Gust Speed 24 mph    
Visibility 10 miles    
Events Rain    
Averages and records for this station are not official NWS values.
T = Trace of Precipitation, MM = Missing Value Source: NWS Daily Summary

Daily Weather History Graph

Daily Weather History Graph

Search for Another Location

Airport:

Trip Planner

Search our weather history database for the weather conditions in past years. The results will help you decide how hot, cold, wet, or windy it might be!

Date:

Astronomy

Sep. 06, 2013 Rise Set
Actual Time 7:10 AM CDT 7:43 PM CDT
Civil Twilight 6:46 AM CDT 8:07 PM CDT
Nautical Twilight 6:19 AM CDT 8:35 PM CDT
Astronomical Twilight 5:50 AM CDT 9:03 PM CDT
Moon 8:13 AM CDT (9/6) 8:22 PM CDT (9/6)
Length of Visible Light 13h 20m
Length of Day
12h 33m
New Moon, 2% of the Moon is Illuminated
Sep 6
New Moon
Sep 12
First Quarter
Sep 19
Full
Sep 26
Last Quarter
Oct 4
New

Hourly Weather History & Observations

Time (CDT) Temp. Heat Index Dew Point Humidity Pressure Visibility Wind Dir Wind Speed Gust Speed Precip Events Conditions
12:56 AM 80.1 °F 85.8 °F 77.0 °F 90% 30.02 in 10.0 mi Calm Calm - N/A   Partly Cloudy
1:26 AM 80.6 °F 87.1 °F 77.0 °F 89% 30.02 in 10.0 mi Calm Calm - N/A   Mostly Cloudy
1:33 AM 80.6 °F 87.1 °F 77.0 °F 89% 30.02 in 10.0 mi Calm Calm - N/A   Scattered Clouds
1:56 AM 81.0 °F 87.9 °F 77.0 °F 88% 30.01 in 10.0 mi SE 3.5 mph - N/A   Partly Cloudy
2:56 AM 81.0 °F 89.2 °F 79.0 °F 94% 30.00 in 10.0 mi East 4.6 mph - 0.01 in   Partly Cloudy
3:56 AM 79.0 °F - 77.0 °F 94% 29.99 in 10.0 mi South 3.5 mph - N/A   Partly Cloudy
4:56 AM 79.0 °F - 75.9 °F 90% 29.99 in 10.0 mi Calm Calm - N/A   Clear
5:56 AM 79.0 °F - 75.9 °F 90% 29.99 in 10.0 mi Calm Calm - N/A   Clear
6:56 AM 80.1 °F 85.8 °F 77.0 °F 90% 30.00 in 10.0 mi Calm Calm - N/A   Clear
6:59 AM 80.6 °F 87.1 °F 77.0 °F 89% 30.00 in 10.0 mi Calm Calm - N/A   Scattered Clouds
7:56 AM 81.0 °F 88.6 °F 78.1 °F 91% 30.01 in 10.0 mi Calm Calm - N/A   Scattered Clouds
8:56 AM 84.9 °F 97.5 °F 79.0 °F 82% 30.03 in 10.0 mi NE 8.1 mph - 0.00 in   Scattered Clouds
9:56 AM 84.9 °F 96.6 °F 78.1 °F 80% 30.04 in 10.0 mi NNE 10.4 mph - N/A   Mostly Cloudy
10:08 AM 84.2 °F 96.1 °F 78.8 °F 84% 30.04 in 10.0 mi NNE 11.5 mph - 0.00 in Rain Light Rain
10:20 AM 82.4 °F 92.4 °F 78.8 °F 89% 30.05 in 9.0 mi NNE 12.7 mph - 0.00 in   Mostly Cloudy
10:31 AM 82.4 °F 92.4 °F 78.8 °F 89% 30.05 in 10.0 mi NE 10.4 mph - 0.00 in   Mostly Cloudy
10:56 AM 86.0 °F 96.9 °F 77.0 °F 74% 30.05 in 10.0 mi NE 11.5 mph - 0.00 in   Mostly Cloudy
11:56 AM 88.0 °F 100.2 °F 77.0 °F 70% 30.04 in 10.0 mi NE 11.5 mph - N/A   Mostly Cloudy
12:47 PM 87.8 °F 97.6 °F 75.2 °F 66% 30.03 in 10.0 mi ENE 12.7 mph 24.2 mph 0.00 in Rain Light Rain
12:56 PM 86.0 °F 95.1 °F 75.0 °F 70% 30.03 in 10.0 mi NE 10.4 mph - 0.00 in Rain Light Rain
1:02 PM 86.0 °F 95.1 °F 75.2 °F 70% 30.03 in 10.0 mi ENE 9.2 mph - 0.00 in   Mostly Cloudy
1:24 PM 86.0 °F 95.1 °F 75.2 °F 70% 30.03 in 10.0 mi ENE 10.4 mph - 0.00 in Rain Light Rain
1:41 PM 84.2 °F 96.1 °F 78.8 °F 84% 30.03 in - North - - 0.01 in   Mostly Cloudy
1:56 PM 89.1 °F 101.4 °F 77.0 °F 67% 30.02 in 10.0 mi East 15.0 mph 19.6 mph 0.01 in   Mostly Cloudy
2:56 PM 89.1 °F 101.4 °F 77.0 °F 67% 29.98 in 10.0 mi East 15.0 mph - N/A   Mostly Cloudy
3:56 PM 89.1 °F 101.4 °F 77.0 °F 67% 29.96 in 10.0 mi East 12.7 mph - N/A   Mostly Cloudy
4:56 PM 87.1 °F 96.3 °F 75.0 °F 67% 29.95 in 10.0 mi East 11.5 mph - N/A   Mostly Cloudy
5:56 PM 84.9 °F 94.1 °F 75.9 °F 74% 29.96 in 10.0 mi ESE 12.7 mph - N/A   Scattered Clouds
6:56 PM 84.9 °F 95.3 °F 77.0 °F 77% 29.95 in 10.0 mi ESE 10.4 mph - N/A   Mostly Cloudy
7:56 PM 82.9 °F 91.8 °F 77.0 °F 82% 29.94 in 10.0 mi ESE 9.2 mph - N/A   Mostly Cloudy
8:56 PM 82.9 °F 91.8 °F 77.0 °F 82% 29.95 in 10.0 mi East 6.9 mph - N/A   Clear
9:56 PM 82.9 °F 91.8 °F 77.0 °F 82% 29.96 in 10.0 mi East 6.9 mph - N/A   Clear
10:56 PM 82.0 °F 89.4 °F 75.9 °F 82% 29.96 in 10.0 mi ESE 6.9 mph - N/A   Clear
11:56 PM 82.0 °F 90.2 °F 77.0 °F 85% 29.96 in 10.0 mi ESE 5.8 mph - N/A   Scattered Clouds